Location: Helsinki
(60.1699°N, 24.9384°E)
Time: 20:20:19
(UTC+02:00)

Transit 4A - Pass Details

Date: 28 October 2020
Orbit: 862 x 982 km, 66.8° (Epoch: 29 November)

Event Time Altitude Azimuth Distance (km) Brightness Sun altitude
Rises 00:18:55 0° 312° (NW) 3,697 11.4 -42.9°
Enters shadow 00:21:34 10° 306° (NW) 2,763 10.6 -42.9°
Reaches altitude 10° 00:21:37 10° 306° (NW) 2,748 - -42.9°
Maximum altitude 00:27:34 41° 239° (WSW) 1,386 - -42.8°
Drops below altitude 10° 00:33:27 10° 171° (S) 2,707 - -42.7°
Sets 00:36:06 0° 165° (SSE) 3,637 - -42.6°
